Hourly Data Report for October 31, 2013

All times are specified in Local Standard Time (LST). Add 1 hour to adjust for Daylight Saving Time where and when it is observed.

POND INLET A
NUNAVUT

72°41'22.000" N
77°58'08.000" W
61.60 m
2403206
71095
YIO

Download Data

Hourly Data (October 2013)
Hourly Data Report for October 31, 2013
Temp Definition
°C
Dew Point Temp Definition
°C
Rel Hum Definition
%
Wind Dir Definition
10's deg

Wind Spd Definition
km/h
Visibility Definition
km
Stn Press Definition
kPa
Hmdx Definition


Wind Chill Definition


Weather Definition


TIME
00:00 Legend Double Dagger -11.3 -14.1 80 15 13 16.1 100.55   -18 LegendNANA
01:00 Legend Double Dagger -11.3 -13.9 81 15 15 16.1 100.56   -18 LegendNANA
02:00 Legend Double Dagger -11.3 -13.6 83 15 13 16.1 100.59   -18 LegendNANA
03:00 Legend Double Dagger -10.7 -12.9 84 15 15 16.1 100.59   -18 LegendNANA
04:00 Legend Double Dagger -10.0 -11.5 89 26 13 6.4 100.60   -16 LegendNANA
05:00 Legend Double Dagger -10.1 -12.5 83 26 9 16.1 100.63   -15 LegendNANA
06:00 Legend Double Dagger -10.9 -12.4 89 19 11 14.5 100.65   -17 LegendNANA
07:00 Legend Double Dagger -10.9 -12.4 89 16 9 9.7 100.67   -16 LegendNANA
08:00 Legend Double Dagger -10.7 -12.2 89 18 11 4.8 100.68   -16 LegendNANA
09:00 Legend Double Dagger -10.8 -12.1 90 20 11 4.8 100.70   -17 LegendNANA
10:00 Legend Double Dagger -11.0 -12.5 89 21 13 8.1 100.70   -17 LegendNANA
11:00 Legend Double Dagger -10.1 -13.8 75 26 15 16.1 100.68   -17 LegendNANA
12:00 Legend Double Dagger -10.2 -13.3 78 26 21 16.1 100.70   -18 LegendNANA
13:00 Legend Double Dagger -10.1 -13.7 75 25 15 16.1 100.74   -17 LegendNANA
14:00 Legend Double Dagger -10.2 -14.8 69 26 13 16.1 100.75   -16 LegendNANA
15:00 Legend Double Dagger -10.4 -14.0 75 26 21 16.1 100.78   -19 LegendNANA
16:00 Legend Double Dagger -10.3 -16.3 62 29 8 16.1 100.81   -15 LegendNANA
17:00 Legend Double Dagger -12.1 -14.7 81 15 13 16.1 100.81   -19 LegendNANA
18:00 Legend Double Dagger -12.0 -14.8 80 15 13 16.1 100.81   -19 LegendNANA
19:00 Legend Double Dagger -12.5 -14.9 83 17 11 16.1 100.82   -19 LegendNANA
20:00 Legend Double Dagger -11.1 -17.7 59 26 15 16.1 100.81   -18 LegendNANA
21:00 Legend Double Dagger -11.3 -18.4 56 26 18 16.1 100.82   -19 LegendNANA
22:00 Legend Double Dagger -11.2 -18.3 56 27 13 16.1 100.80   -18 LegendNANA
23:00 Legend Double Dagger -12.7 -16.1 76 17 15 16.1 100.79   -20 LegendNANA

Notes on Data Quality.

Legend

  • E = Estimated
  • M = Missing
  • NA = Not Available
  • ‡ = Partner data that is not subject to review by the National Climate Archives
Date modified: